Inquirer Daily News

Weather

Get conditions and forecasts for any City, State, ZIP code or Country:  
Northeast Philadelphia, PA
on Wednesday, January 23, 2013

Wednesday
Previous Day Next Day
Daily Summary
 ActualAverage (KTTN)Record (KTTN)
Temperature
Mean Temperature °F 31°F  
Max Temperature 19°F 39°F 72°F (1906)
Min Temperature 10°F 23°F -3°F (1936)
Degree Days
Heating Degree Days 50 34  
Month to date heating degree days 781  
Since 1 July heating degree days 2676  
Cooling Degree Days 0 0  
Month to date cooling degree days 0  
Year to date cooling degree days 0  
Moisture
Dew Point -1°F   
Average Humidity 51    
Maximum Humidity 74    
Minimum Humidity 38    
Precipitation
Precipitation 0.00 in 0.10 in 2.30 in (1998)
Month to date precipitation 2.34  
Year to date precipitation 2.34  
Wind
Wind Speed 8 mph   
Max Wind Speed 15 mph   
Max Gust Speed 23 mph   
Visibility 10 miles   
Events     

Key: T is trace of precipitation, MM is missing value
Source: NWS Daily Summary
Time(EST)TemperatureDew PointHumidity Pressure Visibility Wind DirectionWind SpeedGust SpeedPrecipitationEvents Conditions
12:54 AM 12.9°F -4.0°F 47% 30.27 in 10.0 miles WNW 9.2 mph - N/A   Clear
1:54 AM 12.0°F -5.1°F 46% 30.28 in 10.0 miles West 10.4 mph - N/A   Clear
2:54 AM 10.9°F -4.0°F 51% 30.29 in 10.0 miles West 3.5 mph - N/A   Clear
3:54 AM 10.9°F -2.9°F 54% 30.28 in 10.0 miles West 4.6 mph - N/A   Clear
4:54 AM 12.0°F -2.9°F 51% 30.28 in 10.0 miles West 6.9 mph - N/A   Clear
5:54 AM 10.9°F -2.9°F 54% 30.28 in 10.0 miles WNW 6.9 mph - N/A   Clear
6:54 AM 10.9°F -2.0°F 56% 30.30 in 10.0 miles West 9.2 mph - N/A   Clear
7:54 AM 12.9°F -0.9°F 54% 30.30 in 10.0 miles West 9.2 mph - N/A   Clear
8:54 AM 15.1°F -2.0°F 47% 30.31 in 10.0 miles West 10.4 mph 20.7 mph N/A   Clear
9:54 AM 15.8°F -0.4°F 49% 30.32 in 10.0 miles West 13.8 mph 20.7 mph N/A   Clear
10:54 AM 18.0°F -0.9°F 44% 30.31 in 10.0 miles West 15.0 mph 23.0 mph N/A   Scattered Clouds
11:54 AM 19.0°F -2.0°F 40% 30.28 in 10.0 miles WNW 9.2 mph 20.7 mph N/A   Overcast
12:54 PM 19.0°F -2.0°F 40% 30.24 in 10.0 miles West 15.0 mph 20.7 mph N/A   Mostly Cloudy
1:54 PM 19.0°F -2.9°F 38% 30.23 in 10.0 miles NW 13.8 mph 23.0 mph N/A   Overcast
2:54 PM 19.9°F -2.0°F 38% 30.23 in 10.0 miles WNW 12.7 mph - N/A   Overcast
3:54 PM 18.0°F -2.0°F 41% 30.23 in 10.0 miles WNW 10.4 mph - N/A   Scattered Clouds
4:54 PM 18.0°F -0.0°F 45% 30.24 in 10.0 miles West 11.5 mph - N/A   Overcast
5:54 PM 17.1°F 1.0°F 50% 30.25 in 10.0 miles WNW 4.6 mph - N/A   Clear
6:54 PM 17.1°F 1.0°F 50% 30.24 in 10.0 miles Calm Calm - N/A   Clear
7:54 PM 16.0°F 1.0°F 52% 30.23 in 10.0 miles Calm Calm - N/A   Clear
8:54 PM 14.0°F 1.9°F 59% 30.22 in 10.0 miles Calm Calm - N/A   Clear
9:54 PM 12.9°F 3.9°F 67% 30.23 in 10.0 miles Calm Calm - N/A   Partly Cloudy
10:54 PM 12.9°F 5.0°F 71% 30.23 in 10.0 miles Calm Calm - N/A   Overcast
11:54 PM 14.0°F 7.0°F 74% 30.21 in 10.0 miles Calm Calm - N/A   Overcast
Astronomy
Sunrise:07:15 AM (EST) Moon Rise:02:16 PM (EST)1/23
Sunset:05:08 PM (EST) Moon Set:04:25 AM (EST)1/23
Moon Phase
Jan. 23 Jan. 26 Feb. 03 Feb. 10 Feb. 17

Copyright © 2014 The Weather Underground, Inc.